Location: Gehrden
(52.3125°N, 9.6021°E)
Time: 21:23:03
(UTC+00:00)

Daily predictions for brighter satellites

Satellite Brightness Start Highest point End
(mag) Time Altitude Azimuth Time Altitude Azimuth Time Altitude Azimuth
BREEZE-M DEB (TANK) 3.3 15:39:41 10° WSW 15:42:06 52° SSE 15:47:43 10° E
ARIANE 5 R/B 3.2 15:41:55 10° ESE 15:46:21 31° ENE 15:50:51 10° N
Cosmos 2084 Rocket 3.4 15:42:46 10° NW 15:46:58 69° NE 15:51:11 10° ESE
Intercosmos 24 3.8 15:43:57 10° N 15:47:50 56° ENE 15:51:18 10° SSE
NOSS 3-2 (A) 3.4 15:43:19 10° SSW 15:48:18 61° SE 15:54:21 10° NE
Cosmos 1782 3.3 15:46:26 10° SSE 15:49:42 33° E 15:52:59 10° NNE
SL-08 ROCKET BODY 4.5 15:44:16 10° N 15:50:09 59° ENE 15:56:05 10° SSE
NOSS 3-2 (C) 4.2 15:45:57 10° S 15:50:17 29° ESE 15:55:17 10° ENE
Cosmos 1656 4.0 15:45:14 10° S 15:50:39 51° ESE 15:56:09 10° NE
Cosmos 1758 Rocket 3.6 15:46:44 10° N 15:51:00 56° ENE 15:55:12 10° SSE
Cosmos 2034 Rocket 4.4 15:45:01 10° SSW 15:51:20 72° WNW 15:57:44 10° N
Cosmos 2208 Rocket 4.0 15:47:46 10° NNW 15:52:58 85° ENE 15:58:10 10° SSE
Cosmos 2098 Rocket 3.7 15:51:09 10° SSE 15:55:09 39° E 15:59:47 10° NNE
NOSS 2-2 (E) 3.4 15:52:41 10° SSW 15:55:47 39° SE 15:58:38 10° ENE
Cosmos 724 4.4 15:50:24 10° NW 15:56:32 89° NE 16:02:27 10° SE
Meteor 1-20 Rocket 4.4 15:52:23 10° N 15:57:39 46° ENE 16:02:53 10° SE
CZ-4C R/B 2.9 15:52:40 10° NW 15:59:19 81° NE 16:07:44 10° SE
Cosmos 2266 Rocket 4.2 15:54:42 10° N 16:00:38 46° ENE 16:06:27 10° SE
Cosmos 405 Rocket 2.6 15:59:14 10° NNW 16:02:30 70° W 16:05:41 10° S
CBERS-1 4.0 16:00:22 10° SSE 16:05:29 80° ENE 16:10:38 10° NNW
SMAP 3.2 16:02:26 10° SE 16:06:55 50° ENE 16:11:26 10° N
Cosmos 2297 Rocket 2.3 16:02:53 10° NNW 16:08:36 85° WSW 16:14:16 10° SSE
Landsat 7 4.1 16:07:21 10° SE 16:11:45 44° ENE 16:16:11 10° N
[s.n.66845] 3.6 16:11:22 10° NNE 16:12:42 13° NE 16:12:44 13° NE
[s.n.66847] 3.6 16:11:49 10° N 16:13:09 13° NE 16:13:11 13° NE
Cosmos 1626 Rocket 3.7 16:08:58 10° NNW 16:13:19 79° W 16:17:36 10° S
[s.n.66846] 3.6 16:12:13 10° N 16:13:35 13° NE 16:13:36 13° NE
[s.n.66843] 3.6 16:12:45 10° N 16:14:08 13° NE 16:14:08 13° NE
Meteor 1-28 Rocket 3.1 16:10:57 10° NNE 16:14:15 51° E 16:17:29 10° S
[s.n.66844] 3.6 16:13:10 10° N 16:14:34 13° NE 16:14:34 13° NE
[s.n.66842] 3.6 16:13:41 10° N 16:15:06 13° NE 16:15:06 13° NE
[s.n.66841] 3.6 16:14:08 10° N 16:15:33 13° NE 16:15:33 13° NE
JB-3 4.5 16:12:00 10° N 16:15:38 66° WNW 16:19:13 10° SSW
[s.n.66840] 3.6 16:14:37 10° N 16:16:03 13° NE 16:16:03 13° NE
[s.n.66838] 3.5 16:15:05 10° N 16:16:31 14° NE 16:16:31 14° NE
[s.n.66839] 3.5 16:15:35 10° N 16:17:01 14° NE 16:17:01 14° NE
NOSS 2-2 (C) 3.2 16:14:11 10° WSW 16:17:14 52° NW 16:19:48 13° NE
[s.n.66837] 3.5 16:16:00 10° N 16:17:27 14° NE 16:17:27 14° NE
[s.n.66836] 3.5 16:16:30 10° N 16:17:57 14° NE 16:17:57 14° NE
[s.n.66835] 3.5 16:17:00 10° N 16:18:27 14° NE 16:18:27 14° NE
[s.n.66834] 3.5 16:17:29 10° N 16:18:56 14° NE 16:18:56 14° NE
[s.n.66833] 3.5 16:17:54 10° N 16:19:22 14° NE 16:19:22 14° NE
[s.n.66832] 3.5 16:18:26 10° N 16:19:54 14° NE 16:19:54 14° NE
[s.n.66831] 3.5 16:18:51 10° N 16:20:19 14° NE 16:20:19 14° NE
[s.n.66830] 3.5 16:19:16 10° N 16:20:45 15° NE 16:20:45 15° NE
[s.n.66828] 3.5 16:19:41 10° N 16:21:10 15° NE 16:21:10 15° NE
[s.n.66829] 3.5 16:20:12 10° N 16:21:42 15° NE 16:21:42 15° NE
[s.n.66827] 3.5 16:20:43 10° N 16:22:13 15° NE 16:22:13 15° NE
[s.n.66826] 3.4 16:21:13 10° N 16:22:43 15° NE 16:22:43 15° NE
Cosmos 1315 Rocket 3.9 16:19:24 10° SW 16:23:03 42° WNW 16:26:44 10° N
[s.n.66825] 3.4 16:21:39 10° N 16:23:09 15° NE 16:23:09 15° NE
[s.n.66824] 3.4 16:22:10 10° N 16:23:40 15° NE 16:23:40 15° NE
Cosmos 1606 Rocket 4.3 16:20:33 10° SSE 16:24:26 31° E 16:28:21 10° NNE
[s.n.66823] 3.4 16:22:40 10° N 16:24:10 15° NE 16:24:10 15° NE
[s.n.66822] 3.4 16:23:08 10° N 16:24:39 16° NE 16:24:39 16° NE
ATLAS CENTAUR R/B 3.5 16:22:21 10° WNW 16:25:00 23° WSW 16:27:33 10° S
[s.n.66821] 3.4 16:23:36 10° N 16:25:07 16° NE 16:25:07 16° NE
Thor Agena Rocket 3.6 16:22:42 10° SSE 16:27:56 89° NE 16:33:06 10° NNW
Cosmos 2219 3.8 16:23:07 10° NNW 16:28:23 35° NE 16:33:38 10° ESE
Cosmos 1503 Rocket 4.2 16:23:46 10° S 16:28:49 51° ESE 16:33:38 11° NE
CENTAUR R/B 3.1 16:24:14 10° WSW 16:30:11 54° NNW 16:36:56 13° NE
USA 290 3.5 16:29:16 10° NW 16:32:24 45° WSW 16:35:31 10° S
SL-16 R/B 2.6 16:26:19 10° NNE 16:32:36 88° WNW 16:38:48 10° SSW
Cosmos 1484 Rocket 3.7 16:29:13 10° S 16:32:37 46° W 16:36:01 10° NNW
GEOS 3 Rocket 4.1 16:28:50 14° NE 16:33:17 49° SE 16:38:28 10° SSW
Cosmos 1544 Rocket 3.7 16:29:09 10° SSW 16:33:34 81° WNW 16:38:02 10° N
AQUARIUS 4.2 16:30:37 10° SE 16:34:53 52° ENE 16:39:11 10° N
Cosmos 1844 Rocket 4.0 16:31:09 10° NNW 16:35:17 20° NNE 16:37:19 17° ENE
Lacrosse 5 rocket 1.6 16:31:52 10° W 16:35:29 45° NNW 16:37:41 20° NE
Cosmos 1980 Rocket 3.4 16:31:42 10° SSE 16:35:51 21° ESE 16:37:57 17° ENE
Meteor 1-25 Rocket 4.2 16:32:27 10° N 16:38:19 72° ENE 16:44:04 10° SSE
Meteor 1-5 Rocket 4.3 16:33:11 10° N 16:38:23 49° ENE 16:43:39 10° SE
Cosmos 1354 Rocket 4.4 16:33:29 10° S 16:38:28 44° ESE 16:42:34 15° NE
Lacrosse 4 Rocket 3.2 16:37:14 10° W 16:40:31 23° NW 16:43:46 10° NNE
BREEZE M DEB (TANK) 3.7 16:38:52 10° SSW 16:40:33 17° SSE 16:41:17 15° SE
CORIOLIS 4.3 16:36:49 10° SSE 16:42:10 81° WSW 16:47:33 10° NNW
IRIDIUM 104 4.3 16:37:47 10° N 16:43:04 84° E 16:48:17 10° S
Cosmos 2263 Rocket 2.3 16:37:58 10° NNW 16:43:34 55° NE 16:49:08 10° SE
Cosmos 2228 4.4 16:40:34 10° SW 16:44:32 38° WNW 16:48:32 10° N
Cosmos 1777 Rocket 3.9 16:39:44 10° SSW 16:44:59 77° ESE 16:49:52 12° NNE
Cosmos 1726 Rocket 4.1 16:43:59 10° SSE 16:48:19 40° E 16:51:54 14° NNE
CZ-2D R/B 2.6 16:45:40 10° SSE 16:48:48 79° ENE 16:51:58 10° NNW
Okean 1-7 Rocket 3.5 16:45:56 10° NNW 16:50:22 87° W 16:54:44 10° S
USA 238 DEB 4.4 16:45:48 10° S 16:50:57 29° ESE 16:53:47 21° ENE
USA 238 4.4 16:45:56 10° S 16:51:04 29° ESE 16:53:52 21° ENE
Cosmos 44 Rocket 4.5 16:47:27 10° NW 16:51:46 27° NNE 16:53:32 22° NE
IRIDIUM 114 4.4 16:46:56 10° N 16:52:12 84° W 16:57:25 10° S
Cosmos 1602 Rocket 4.1 16:47:55 10° NNW 16:52:16 60° W 16:56:32 10° S
NOSS 3 (A) 4.1 16:50:08 10° NW 16:52:18 53° NE 16:52:32 50° ENE
ERS-1 4.4 16:49:25 10° SSE 16:54:25 82° ENE 16:59:24 10° NNW
Cosmos 1461 2.6 16:52:37 10° SW 16:56:31 78° SE 16:58:30 28° NE
USA 215 3.5 16:53:50 21° ENE 16:58:20 60° N 17:04:47 10° WNW
Cosmos 1933 3.1 16:54:33 10° S 16:58:21 69° E 17:01:21 16° NNE
Cosmos 1943 Rocket 4.3 16:57:42 10° NNW 16:59:01 11° N 17:00:20 10° NNE
Cosmos 2227 Rocket 2.3 16:54:21 10° NNW 17:00:02 79° WSW 17:05:40 10° SSE
SKYMED 2 4.2 16:58:49 27° ENE 17:00:07 33° E 17:04:03 10° SSE
IRS-1C 4.3 16:54:49 10° SSE 17:00:09 79° WSW 17:05:31 10° NNW
YAOGAN 1 2.9 16:56:56 10° SE 17:00:53 38° ENE 17:04:51 10° N
Cosmos-2242 4.2 16:57:40 10° SE 17:00:13 23° ESE 17:00:13 23° ESE
Cosmos 1743 4.5 16:59:53 10° NNW 17:02:44 28° W 17:05:34 10° SSW
NOSS 2-3 (E) 3.9 16:59:46 10° S 17:03:04 33° SE 17:03:38 31° ESE
NOSS 2-3 (D) 4.0 17:00:28 10° S 17:03:45 31° ESE 17:04:14 30° ESE
Cosmos 1486 Rocket 4.4 16:59:37 10° SW 17:04:47 63° WNW 17:09:39 12° NNE
SJ-12 3.9 17:01:12 10° S 17:04:58 71° WSW 17:08:46 10° NNW
Cosmos 2369 Rocket 4.3 17:01:47 10° WNW 17:05:31 18° NNW 17:09:18 10° NNE
Cosmos 2151 4.2 17:02:22 10° NNW 17:06:19 43° W 17:10:16 10° SSW
Cosmos 1655 Rocket 3.9 17:06:00 10° N 17:12:17 79° E 17:18:30 10° SSE
Meteor 2-10 4.1 17:08:10 10° N 17:13:29 60° ENE 17:18:56 10° SSE
Cosmos 1697 Rocket 2.6 17:10:08 10° SSW 17:15:44 77° ESE 17:19:15 24° NE
Cosmos 990 Rocket 3.9 17:10:56 10° SSW 17:16:02 73° ESE 17:19:09 24° NNE
Cosmos 1953 Rocket 3.4 17:11:40 10° N 17:16:09 77° E 17:20:36 10° SSE
CZ-4 R/B 4.2 17:12:26 10° SSE 17:16:23 77° ENE 17:20:20 10° NNW
MOS 1 Rocket 3.7 17:12:49 10° S 17:17:46 74° WSW 17:23:01 10° NNW
Aureole 1 Rocket 3.8 17:14:10 10° S 17:18:27 40° ESE 17:19:37 35° ENE
Cosmos 2278 Rocket 4.3 17:16:50 10° NNW 17:18:43 12° N 17:19:59 11° NNE
NOSS 2-2 (D) 4.1 17:22:00 10° W 17:24:44 28° NNW 17:25:11 27° NNW
ARIANE 5 R/B 3.5 17:20:18 10° S 17:25:11 49° W 17:30:13 10° NNW
Cosmos 1825 Rocket 4.3 17:21:10 10° NNW 17:25:26 54° W 17:29:38 10° S
Resurs 01 Rocket 3.7 17:29:46 15° N 17:29:46 15° N 17:30:35 10° N
Cosmos 1680 Rocket 3.8 17:26:42 10° NNW 17:31:40 42° NE 17:31:45 42° ENE
NOAA 6 4.0 17:27:35 10° SE 17:32:34 57° ENE 17:37:34 10° N
USA 81 3.9 17:27:53 10° N 17:33:11 79° E 17:38:27 10° S
CZ-2D R/B 3.4 17:32:11 10° SSE 17:36:23 87° WSW 17:40:33 10° NNW
Radarsat Rocket 4.5 17:30:01 10° SSE 17:38:04 80° ENE 17:45:14 10° NNW
IRAS Rocket 4.1 17:33:27 10° SSE 17:38:55 76° ENE 17:44:24 10° NNW
NOSS 3-2 (A) 4.1 17:34:10 10° W 17:39:21 44° NNW 17:42:25 27° NNE
Gbstr 26 Del rocket 3.1 17:35:55 10° SW 17:39:37 50° SSE 17:39:37 50° SSE
Cosmos 1844 4.3 17:35:05 10° NNW 17:39:50 35° NE 17:39:50 35° NE
Meteor 2-2 Rocket 4.2 17:34:51 10° S 17:40:20 54° E 17:41:52 42° NE
NOSS 3-2 (C) 3.4 17:35:16 10° WSW 17:40:30 69° NW 17:43:16 33° NE
SPOT 1/Viking Rocket 3.8 17:36:57 10° S 17:42:09 70° WSW 17:47:22 10° NNW
Cosmos 1076 Rocket 4.2 17:39:18 10° NNW 17:43:31 54° W 17:47:42 10° S
PSLV R/B 3.2 17:43:07 52° SSE 17:44:03 83° ENE 17:48:08 10° NNW
[s.n.66845] 4.4 17:43:15 10° NW 17:43:44 14° NW 17:43:44 14° NW
[s.n.66847] 4.4 17:43:42 10° NW 17:44:11 14° NW 17:44:11 14° NW
[s.n.66846] 4.4 17:44:08 10° NW 17:44:36 14° NW 17:44:36 14° NW
SJ-7 4.2 17:47:21 74° NW 17:47:21 74° NW 17:50:52 10° NNW
Cosmos 2082 3.6 17:41:36 10° NNW 17:47:21 83° ENE 17:50:42 26° SE
[s.n.66843] 4.4 17:44:41 10° NW 17:45:08 14° NW 17:45:08 14° NW
CZ-4C R/B 4.5 17:41:07 10° WNW 17:47:30 36° WSW 17:55:05 10° S
SL-19 R/B 4.1 17:42:17 10° SSE 17:47:43 88° ENE 17:53:29 10° NNW
COSMO-SKYMED 1 3.3 17:49:13 37° SSE 17:49:13 37° SSE 17:51:52 10° S
[s.n.66844] 4.4 17:45:08 10° NW 17:45:35 14° NW 17:45:35 14° NW
[s.n.66842] 4.5 17:45:40 10° NW 17:46:07 14° NW 17:46:07 14° NW
[s.n.66841] 4.5 17:46:07 10° NW 17:46:33 13° NW 17:46:33 13° NW
[s.n.66840] 4.5 17:46:38 10° NW 17:47:03 13° NW 17:47:03 13° NW
Cosmos 2058 Rocket 2.9 17:46:15 10° S 17:50:43 79° E 17:50:45 78° E
Cosmos 2227 4.4 17:50:35 10° NNW 17:55:43 50° NE 17:55:43 50° NE
Meteor 2-11 Rocket 4.3 17:53:24 10° N 17:59:35 71° ENE 18:05:43 10° SSE
Nadezhda 2 Rocket 4.3 17:55:08 10° N 18:01:19 90° E 18:07:25 10° S
Meteor 1-26 Rocket 3.9 17:59:16 10° S 18:04:40 83° ESE 18:05:35 62° NNE
GEOS 3 Rocket 4.3 18:09:54 41° N 18:11:17 52° NW 18:16:29 10° WSW
Cosmos 1553 Rocket 3.8 18:05:50 10° S 18:12:00 81° E 18:14:51 35° NNE
Cosmos 2219 3.7 18:07:12 10° NW 18:12:49 58° WSW 18:17:57 13° S
Lacrosse 5 rocket 3.0 18:09:29 10° WNW 18:11:16 24° NW 18:11:16 24° NW
Resurs 1-3 4.4 18:08:52 10° S 18:13:02 48° W 18:17:13 10° NNW
Cosmos 1980 Rocket 2.2 18:13:33 10° SW 18:19:13 80° WNW 18:19:44 72° N
Cosmos 1844 Rocket 3.1 18:14:39 10° NNW 18:18:59 49° N 18:18:59 49° N
USA 281 4.1 18:22:44 33° NNE 18:22:44 33° NNE 18:27:05 10° NNW
CENTAUR R/B 3.8 18:16:09 10° WNW 18:22:22 36° N 18:24:02 33° NNE
Cosmos 1745 Rocket 4.0 18:19:29 10° N 18:24:47 65° NNE 18:24:47 65° NNE
Cosmos 2263 Rocket 3.8 18:22:14 10° NW 18:27:15 33° WSW 18:32:14 10° SSW
Cosmos 1898 Rocket 3.9 18:26:06 10° SSW 18:30:11 56° SW 18:30:11 56° SW
Cosmos 2369 4.2 18:26:26 10° SSW 18:30:42 52° SSW 18:30:42 52° SSW
Cosmos 44 Rocket 4.4 18:28:48 10° NW 18:32:08 41° NNW 18:32:08 41° NNW
YAOGAN 1 4.5 18:33:08 10° SSW 18:36:49 28° W 18:40:32 10° NW
USA 215 3.1 18:41:10 77° NNE 18:41:10 77° NNE 18:47:40 10° WNW
USA 238 DEB 3.5 18:34:57 10° SW 18:41:11 79° NW 18:41:14 79° NW
USA 238 3.5 18:35:03 10° SW 18:41:18 80° NW 18:41:19 80° NW
Cosmos 1943 Rocket 4.4 18:41:37 10° NNW 18:42:28 13° N 18:42:28 13° N
Cosmos 1697 Rocket 4.3 18:55:29 10° W 19:00:17 28° NW 19:00:59 27° NNW
CENTAUR R/B 4.4 20:07:37 10° NW 20:11:08 29° NNW 20:11:08 29° NNW
